Presure
145 138 153 126 110 157 192 195 325 367 376 355 215 292 150 252 244 239 244 246 240 265 242 228 211 203 197 216 212 204 190 180 179 173 173 148 161 167 160 161 193 161 168 160 174
139 143 136 192 186 179 118 321 320 374 316 364 261 300 234 207 238 249 237 229 237 241 259 238 216 210 219 209 219 212 196 183 179 180 175 172 165 145 161 157 161 197 175 167 164
136 143 155 146 181 232 110 318 281 364 136 159 358 337 290 282 201 254 249 238 232 234 237 277 232 224 209 220 198 219 186 190 181 184 175 176 172 169 170 163 158 164 190 115 165
134 155 208 121 250 126 140 319 165 383 183 166 366 351 319 288 272 255 245 251 240 232 233 234 278 236 218 222 210 206 216 202 189 179 182 173 176 176 168 160 167 126 166 182 188
133 136 143 124 211 107 207 353 326 358 191 351 351 302 345 319 287 260 253 241 241 240 231 227 236 262 227 219 209 211 216 205 202 187 174 186 177 173 167 159 161 159 164 157 183
152 120 168 120 181 158 318 334 333 360 360 344 341 268 355 337 296 282 252 249 242 223 236 231 222 228 270 223 221 202 204 209 202 194 184 176 180 178 170 165 172 161 165 156 162
133 137 177 117 161 215 334 325 343 151 356 351 344 333 351 354 315 285 277 249 250 246 236 234 232 225 233 259 227 217 204 208 209 205 196 176 176 178 171 170 168 171 163 168 164
131 145 133 251 228 252 330 335 354 258 352 343 344 349 335 329 332 321 271 268 249 245 229 240 234 231 217 226 250 226 220 208 210 208 199 197 186 180 180 177 171 174 163 167 169
134 160 226 142 119 341 324 340 311 349 345 341 331 345 345 315 326 328 324 263 261 251 243 232 236 235 232 215 219 239 255 222 201 200 207 203 193 190 183 181 179 169 171 176 171
147 132 172 207 278 336 335 297 359 239 344 340 339 328 319 319 314 312 330 317 259 254 249 243 249 241 230 221 224 206 217 239 279 218 189 209 198 186 189 194 186 181 179 176 174
233 124 150 146 193 340 182 374 357 135 330 99 315 307 313 309 318 312 314 331 324 263 249 248 242 245 234 218 215 224 212 210 234 280 227 221 210 212 189 200 197 188 185 179 177
134 105 159 141 321 356 308 356 287 338 316 297 286 286 287 282 182 316 307 313 333 299 257 251 252 243 228 228 218 213 226 220 208 230 260 263 213 221 215 200 200 200 191 189 183
135 112 280 339 350 188 270 353 340 333 323 544 530 151 85 90 91 205 305 295 325 326 322 254 252 236 239 227 221 215 212 225 220 208 215 237 263 253 225 221 216 211 208 201 194
164 136 235 282 384 237 351 335 335 325 498 497 462 477 527 499 300 271 268 294 296 320 307 298 250 243 238 233 236 216 205 213 225 222 203 209 221 234 258 286 274 221 217 218 215
136 260 158 350 321 133 345 333 322 486 505 491 459 426 499 513 350 219 263 263 296 298 111 109 180 240 248 235 232 224 215 207 217 224 219 213 205 201 214 218 291 305 263 235 207
170 162 203 281 368 342 339 327 316 461 453 444 418 381 417 490 375 412 282 267 263 287 295 307 298 248 241 231 236 214 217 214 206 216 220 223 217 201 200 199 208 267 276 259 242
193 235 204 369 249 285 329 318 457 453 464 415 412 395 395 399 469 430 360 276 262 281 298 301 302 268 242 214 237 224 219 224 214 217 217 212 218 204 215 199 199 201 272 254 237
152 329 274 357 339 231 323 318 451 439 443 407 392 393 385 394 402 437 411 291 270 259 284 293 299 281 263 244 246 227 223 235 217 217 190 214 215 211 199 201 203 193 206 256 239
153 235 338 344 298 327 315 450 452 429 433 391 381 368 366 372 378 399 419 402 279 254 264 286 298 274 256 254 249 242 231 228 220 216 212 215 210 204 206 206 200 208 192 248 243
327 362 309 226 178 317 308 445 438 437 417 393 381 364 355 346 346 376 404 427 295 266 252 263 278 281 258 257 269 249 223 219 222 227 212 204 213 201 203 210 202 203 200 191 244
145 269 347 335 323 311 412 452 434 434 407 384 372 366 350 350 343 369 396 386 383 272 257 253 279 292 268 257 257 255 246 233 223 216 211 205 200 206 209 208 206 203 203 197 245
349 214 345 329 314 304 458 438 433 439 397 390 369 361 352 343 340 347 357 396 380 317 259 258 250 279 266 258 249 266 245 244 231 212 215 204 204 198 198 187 206 206 200 205 192
347 341 337 172 308 297 447 406 422 438 403 387 385 366 359 350 342 339 363 362 380 381 269 259 259 267 292 265 252 246 244 242 235 227 218 214 203 199 195 182 203 209 206 198 200
149 339 330 315 308 294 419 411 420 436 411 383 370 364 358 346 351 338 342 355 364 382 363 263 258 260 264 277 259 239 238 232 198 229 221 215 215 200 193 200 192 201 208 204 197
339 328 151 306 301 289 382 411 401 430 397 375 353 345 352 356 344 339 334 342 358 365 353 336 256 258 247 270 258 251 235 240 238 253 229 219 209 210 200 196 193 194 204 206 200
140 326 314 305 299 287 371 391 392 394 430 357 358 359 343 349 328 328 323 338 338 345 330 361 321 256 255 253 271 256 247 238 230 236 258 216 225 212 200 204 204 201 195 203 203
216 321 306 300 295 283 385 397 391 394 390 402 367 347 333 327 324 316 323 324 332 344 338 325 360 299 255 255 249 265 258 245 234 234 229 248 216 211 207 211 112 205 200 201 207
Wind_Speed
66 61 72 34 27 73 46 60 48 43 41 45 36 57 36 61 60 61 62 61 63 83 88 89 88 86 85 93 97 97 88 86 89 87 86 73 78 80 76 76 79 75 81 78 79
67 70 60 75 66 71 37 66 49 42 35 43 39 60 47 46 57 65 64 64 69 68 91 91 91 90 94 92 97 96 93 92 95 91 88 80 83 73 80 79 75 73 82 79 79
65 70 81 53 64 61 35 67 56 42 43 33 48 58 68 68 48 67 70 70 71 74 74 83 95 94 90 97 88 96 85 99 92 96 91 87 91 86 83 80 80 78 73 56 80
64 80 75 39 65 41 77 69 69 39 46 38 43 51 66 72 71 73 74 76 75 75 78 78 83 96 94 95 96 92 101 104 100 93 97 89 93 86 84 82 81 69 80 78 78
67 70 76 42 77 34 84 55 52 44 51 41 39 42 55 68 72 78 77 77 77 78 78 82 80 86 98 97 96 93 98 102 104 102 94 99 92 87 88 84 85 82 85 79 81
83 49 84 43 83 69 78 67 58 43 43 43 44 41 47 56 79 78 82 81 81 74 83 82 83 83 78 100 99 96 97 102 102 103 105 92 96 91 91 85 89 82 85 79 76
70 79 74 44 94 65 75 68 56 60 44 47 50 49 42 40 68 82 84 84 85 84 84 86 85 88 83 77 103 102 99 101 102 106 108 92 94 95 95 91 93 89 85 80 80
72 93 72 99 85 87 73 66 52 63 47 47 52 53 44 45 60 68 83 90 88 88 88 89 90 85 87 86 78 103 105 99 104 105 108 106 103 101 102 98 97 93 89 87 84
79 77 103 90 56 78 73 64 59 53 50 51 48 54 48 52 55 64 75 87 94 93 92 91 91 90 87 86 87 78 86 105 103 103 108 105 106 107 107 102 102 92 92 93 89
83 66 95 95 76 79 74 63 55 59 54 54 52 49 44 53 57 66 70 80 92 96 98 96 93 89 90 81 76 88 85 81 80 109 99 106 105 103 105 106 105 100 96 95 91
93 64 96 94 93 79 68 56 53 69 54 18 52 45 48 55 56 62 70 74 81 99 96 96 95 87 88 86 87 84 92 92 81 73 109 106 105 112 103 106 107 101 100 98 97
75 44 93 89 88 74 65 60 62 55 53 57 58 55 56 58 35 62 69 71 75 92 98 97 92 90 88 90 92 91 79 85 92 79 69 84 101 105 107 104 104 107 104 100 99
65 54 102 89 83 73 72 66 65 63 56 14 26 35 29 29 29 55 65 74 69 77 85 96 94 97 95 92 93 91 85 80 87 85 81 75 69 82 100 102 103 102 103 103 99
100 75 88 99 71 75 70 71 72 67 35 19 23 22 26 42 74 76 72 71 78 69 79 91 99 99 96 92 96 91 88 89 80 79 88 85 71 68 61 58 73 93 92 91 92
67 95 98 89 73 76 73 73 72 21 27 10 5 19 10 28 27 56 81 81 76 71 34 21 62 93 98 90 93 94 92 89 86 76 84 79 76 80 72 67 52 54 74 90 88
94 100 100 73 73 77 76 75 73 20 12 3 15 28 10 12 27 55 83 86 83 77 73 75 85 102 95 97 98 93 92 91 85 83 75 71 71 78 75 75 69 55 61 70 75
105 98 78 74 73 75 75 74 20 12 5 10 9 16 12 13 24 59 76 88 86 77 73 75 81 102 98 85 100 95 91 94 88 80 71 74 69 70 69 73 71 68 56 64 69
89 95 76 74 78 74 76 74 17 10 7 16 14 12 7 12 17 28 66 93 86 79 76 77 81 94 101 95 100 96 92 92 84 78 70 76 68 66 74 71 71 74 66 60 64
71 80 86 76 76 77 76 20 7 6 12 20 18 17 16 9 20 22 33 58 88 84 79 76 78 92 98 100 105 101 97 92 85 82 75 73 71 68 73 72 74 66 74 56 59
92 76 72 73 71 76 75 17 10 11 19 23 21 20 22 22 26 20 26 42 92 86 82 80 82 91 96 97 96 99 96 91 85 84 76 71 75 73 75 72 74 68 69 69 59
69 71 72 74 75 76 34 12 9 13 21 25 22 21 23 22 27 16 17 44 55 88 87 88 85 87 94 93 89 94 100 94 87 79 76 73 72 71 74 73 74 72 67 67 53
81 72 70 72 73 73 11 12 8 14 24 26 21 21 24 26 19 25 28 25 51 88 89 90 84 83 90 97 95 90 97 101 96 83 76 76 75 73 73 74 72 70 67 64 67
75 70 69 69 71 71 12 20 10 17 28 23 26 24 29 27 29 27 24 28 34 53 91 92 88 84 86 97 95 89 90 92 93 93 81 83 78 77 75 70 70 72 69 66 63
71 66 69 70 69 69 18 18 13 18 25 22 20 25 26 25 27 25 21 28 32 26 59 93 89 84 79 85 95 94 90 88 68 93 89 79 79 77 75 75 73 69 68 67 65
68 68 65 69 69 68 30 17 16 5 15 22 19 20 22 26 24 24 24 30 23 27 42 71 91 87 84 85 96 95 93 90 86 84 90 88 82 79 74 77 76 74 68 67 66
67 65 68 68 68 67 36 23 13 8 2 19 24 26 23 26 23 20 26 23 33 34 36 33 72 92 88 86 89 95 95 92 82 84 85 84 90 84 77 78 82 79 74 69 67
65 64 67 67 68 65 28 17 12 8 7 16 32 28 26 27 29 30 29 31 28 35 47 58 38 86 90 88 89 89 90 91 87 85 80 86 83 89 81 80 41 81 77 71 68
Wind_Direction
337 344 336 343 315 330 315 338 308 283 266 252 264 231 300 236 236 233 228 225 224 219 217 223 225 227 227 227 225 224 224 226 224 226 226 228 227 226 226 228 232 228 232 232 235
337 338 337 325 334 326 319 335 313 282 286 252 262 231 247 258 237 228 231 227 223 224 220 221 225 227 226 227 227 227 223 224 228 226 227 224 227 231 227 228 229 233 234 233 233
342 337 331 344 325 325 315 335 319 293 316 300 248 235 232 226 248 229 230 227 225 224 223 225 223 225 226 226 227 228 224 227 227 226 230 223 227 226 227 228 230 231 236 241 235
344 332 329 323 329 323 339 333 326 283 311 306 253 244 233 230 226 229 230 224 225 224 224 224 227 224 226 226 226 226 225 227 228 229 229 228 230 227 228 228 231 241 234 237 237
342 344 339 323 331 315 333 321 320 296 310 270 261 262 241 228 226 229 229 230 227 224 225 224 223 225 224 225 224 224 225 226 227 227 230 229 230 229 230 229 230 231 233 235 237
327 325 325 324 323 329 329 325 318 289 278 273 264 270 247 233 228 223 231 228 229 230 225 224 224 224 228 224 225 225 225 225 226 227 230 231 230 230 234 233 236 234 236 234 236
339 340 335 326 329 330 326 324 313 320 279 270 262 259 250 237 232 227 222 230 227 225 225 226 224 224 222 226 224 225 227 227 226 228 228 231 233 232 233 232 236 236 237 238 237
339 331 336 333 333 328 324 320 300 311 279 272 263 260 250 237 233 230 227 222 227 228 230 225 227 223 224 223 224 225 226 229 228 228 229 230 231 234 236 235 233 233 233 236 239
338 319 331 332 327 323 324 317 308 290 281 272 268 263 254 244 237 230 227 227 224 226 227 230 224 225 221 225 223 224 228 227 229 229 229 230 231 232 235 235 235 236 236 237 238
329 330 330 326 325 323 322 312 295 307 280 273 266 261 255 248 237 234 229 225 227 225 225 227 223 223 226 224 224 227 225 228 231 230 229 230 231 233 235 236 237 236 237 239 239
332 333 326 328 324 322 324 301 294 318 286 266 274 262 252 247 241 235 236 227 225 225 227 227 227 222 221 226 224 223 224 226 227 230 229 231 232 234 235 237 238 239 239 238 239
333 333 322 328 327 320 314 308 309 296 290 285 277 268 253 240 243 239 235 233 229 224 228 228 227 225 227 223 226 229 224 226 228 227 228 231 232 235 236 236 237 239 240 241 242
330 332 332 325 325 319 316 314 311 304 297 287 265 269 285 279 278 244 234 237 232 227 225 228 223 226 223 223 224 228 230 226 228 226 227 230 229 234 235 236 237 239 241 243 244
318 334 332 331 322 318 320 321 317 312 293 301 266 270 255 234 233 232 232 232 233 226 224 221 224 224 224 223 221 227 230 229 227 226 228 229 227 231 234 238 240 240 242 242 242
330 326 326 327 324 314 325 324 320 295 301 301 284 269 288 221 240 234 228 230 232 226 260 255 233 225 222 223 222 221 226 230 228 224 227 229 228 233 233 234 236 232 235 239 241
327 323 325 327 326 328 328 326 323 297 313 231 208 248 268 224 212 197 222 225 227 226 218 218 216 222 220 222 221 225 225 227 230 225 225 229 229 234 233 234 232 231 230 234 236
319 325 323 329 323 325 329 327 307 306 301 196 194 226 222 219 211 198 209 224 228 226 219 218 216 218 221 223 220 225 226 223 229 230 225 229 227 230 235 236 234 234 229 231 235
333 328 328 330 329 324 330 329 314 278 188 187 206 173 160 207 202 211 206 219 222 224 222 216 216 214 219 221 221 225 228 223 227 227 226 226 226 225 234 234 235 233 232 227 231
316 324 330 331 328 332 331 322 305 234 175 195 208 212 206 188 207 212 212 208 217 221 223 219 214 211 217 219 218 220 225 225 222 223 223 227 224 224 230 231 234 231 233 228 227
326 330 329 323 323 332 332 318 277 218 174 189 194 202 209 205 214 213 208 196 212 216 219 220 214 211 213 220 217 219 221 225 223 220 221 222 221 226 230 229 234 232 232 233 228
317 326 332 332 332 333 326 303 279 217 184 191 206 201 210 209 218 204 191 197 202 213 218 222 215 212 211 215 217 214 219 223 224 222 219 222 225 225 228 228 230 233 233 231 230
329 322 332 331 333 333 341 319 290 211 202 203 215 204 207 211 211 219 196 201 205 211 216 221 220 215 211 212 218 215 215 216 217 223 219 223 221 223 227 230 232 233 234 232 231
329 332 332 323 333 334 355 326 323 207 206 211 202 209 198 204 205 218 205 200 202 209 213 221 220 216 214 213 215 220 216 217 217 219 221 217 219 223 225 229 232 232 232 234 231
316 331 331 332 334 335 337 329 342 207 212 204 204 192 205 210 198 207 200 206 201 207 210 218 220 219 214 213 215 216 222 217 219 217 219 223 221 222 225 231 231 233 233 231 233
331 331 322 332 334 335 334 333 340 323 218 199 209 209 205 189 198 194 205 203 199 193 198 216 220 219 216 214 215 212 219 222 216 217 217 219 223 222 224 229 231 232 233 232 231
316 331 330 332 334 335 334 327 331 318 299 221 211 201 197 180 185 186 207 197 206 190 191 222 216 220 216 215 215 215 214 218 221 218 217 219 217 223 219 225 230 231 229 231 232
321 330 330 332 334 334 328 312 317 282 257 213 207 205 202 201 197 196 211 209 210 201 205 217 211 217 218 217 215 217 216 217 218 223 217 218 219 224 225 225 230 229 231 231 231